Location: Bay Ridge
(40.6340°N, 74.0146°W)
Time: 12:41:10
(UTC+00:00)

STARLINK - Pass Details

Date: 15 November 2019
Orbit: 528 x 530 km, 53.0° (Epoch: 16 December)

Event Time Altitude Azimuth Distance (km) Brightness Sun altitude
Rises 10:47:34 0° 226° (SW) 2,648 6.8 -10.6°
Reaches altitude 10° 10:49:46 10° 224° (SW) 1,761 5.9 -10.2°
Maximum altitude 10:53:45 77° 140° (SE) 543 3.7 -9.5°
Drops below altitude 10° 10:57:45 10° 54° (NE) 1,766 6.7 -8.8°
Sets 10:59:58 0° 53° (NE) 2,656 7.7 -8.4°
